Simultaneous Nadir Overpasses (SNOs) Predictions

Prediction of SNOs between GOES-14 and NPP Satellite Orbit:

Table of predicted SNOs for the next 14.0 days since TLE Epoch: 7/1/2023
Index Date Time (GOES-14) GOES-14 Lat,Lon NPP Lat,Lon Distance(km) Time Diff (sec)
1 07/01/2023 08:40:46 -0.13,-108.67 -0.23,-108.21 52.77 80
2 07/03/2023 20:41:19 0.15,-108.57 0.06,-108.99 48.27 80
3 07/04/2023 20:25:15 0.13,-108.57 1.06,-104.46 467.89 80
4 07/06/2023 08:44:24 -0.17,-108.65 0.07,-109.75 124.77 80
5 07/07/2023 08:28:20 -0.15,-108.65 -0.93,-105.22 391.07 80
6 07/08/2023 20:47:36 0.19,-108.54 -0.28,-110.52 226.33 80
7 07/09/2023 20:31:31 0.17,-108.55 0.72,-105.99 290.22 80
8 07/11/2023 08:50:41 -0.21,-108.65 0.40,-111.28 300.95 80
9 07/12/2023 08:34:36 -0.19,-108.64 -0.60,-106.75 214.96 80
10 07/13/2023 20:53:54 0.24,-108.53 -0.55,-112.07 403.69 80
11 07/14/2023 20:37:49 0.22,-108.53 0.46,-107.54 112.55 80
